Volver al catálogo

CZ-4 DEB

ActivoPO
NORAD 26151·DEBRIS·🇨🇳 China

Lanzado Oct 14, 1999 desde Taiyuan Satellite Launch Center

Loading…

Próximos Pases (próximas 24 horas)

TLE

ActualizadoSource: Space-Track

Época: Sep 14, 2026, 06:55 UTC

1 26151U 99057AM  26257.28883947  .00000717  00000-0  70919-3 0  9990
2 26151  99.4514 183.9559 0613685 310.4452 206.9205 13.19381539270597

Sigue CZ-4 DEB en tiempo real con AllMySat

Download on the App Store